{"data":{"norad_id":47401,"intl_designator":"2021-005BE","name":"STARLINK-2123","alt_names":[],"object_type":"PAYLOAD","status":"ACTIVE","operator":null,"country":"US","launch_date":"2021-01-20","launch_site_code":"AFETR","launch_vehicle":null,"mission":null,"orbit_class":"UNKNOWN","rcs_meters":null,"size_class":null,"mass_kg":null,"dimensions":null,"purposes":["comms"],"wikipedia_slug":null,"has_3d_model":false,"image_url":null,"decayed_at":null,"tle_current":{"epoch":"2026-05-25T02:45:53.013024Z","epoch_age_seconds":64558,"freshness":"FRESH","line1":"1 47401U 21005BE  26145.11519691  .00000828  00000+0  38427-4 0  9990","line2":"2 47401  53.1612  41.5018 0001199  83.6414 276.4723 15.31716667295090","mean_motion":15.31716667,"eccentricity":0.0001199,"inclination_deg":53.1612,"raan_deg":41.5018,"arg_perigee_deg":83.6414,"mean_anomaly_deg":276.4723,"bstar":3.8427e-5,"rev_number":29509,"period_min":94.012164979595,"perigee_km":469.86913782171,"apogee_km":471.51148661118,"semimajor_km":6848.8273122164,"source":"CELESTRAK","updated_at":"2026-05-25T13:38:16.554850Z"}}}